TimeEST,TemperatureF,Dew PointF,Humidity,Sea Level PressureIn,VisibilityMPH,Wind Direction,Wind SpeedMPH,Gust SpeedMPH,PrecipitationIn,Events,Conditions,WindDirDegrees,DateUTC
12:03 AM,48.2,44.6,87,30.27,8.0,NE,5.8,-,N/A,,Overcast,50,2012-11-16 05:03:00
12:36 AM,48.2,44.6,87,30.27,10.0,NE,4.6,-,N/A,,Overcast,50,2012-11-16 05:36:00
12:53 AM,48.9,44.1,83,30.26,10.0,NNE,4.6,-,N/A,,Overcast,20,2012-11-16 05:53:00
1:53 AM,48.0,44.1,86,30.27,10.0,NE,6.9,-,N/A,,Overcast,50,2012-11-16 06:53:00
2:22 AM,48.2,44.6,87,30.26,10.0,NE,5.8,-,N/A,,Overcast,40,2012-11-16 07:22:00
2:53 AM,48.0,44.1,86,30.26,10.0,ENE,8.1,-,N/A,,Overcast,60,2012-11-16 07:53:00
3:50 AM,48.2,44.6,87,30.26,10.0,NNE,5.8,-,N/A,,Overcast,30,2012-11-16 08:50:00
3:53 AM,48.0,44.1,86,30.26,10.0,ENE,8.1,-,N/A,,Overcast,60,2012-11-16 08:53:00
4:25 AM,48.2,46.4,93,30.26,2.0,NNE,3.5,-,0.00,Rain,Light Rain,30,2012-11-16 09:25:00
4:43 AM,48.2,46.4,93,30.26,4.0,NNE,4.6,-,0.00,,Overcast,30,2012-11-16 09:43:00
4:53 AM,48.0,46.0,93,30.26,4.0,NNE,3.5,-,0.00,,Overcast,30,2012-11-16 09:53:00
5:26 AM,48.2,46.4,93,30.26,7.0,ENE,5.8,-,N/A,,Overcast,70,2012-11-16 10:26:00
5:53 AM,48.0,46.0,93,30.26,9.0,North,3.5,-,N/A,,Overcast,350,2012-11-16 10:53:00
6:20 AM,48.2,46.4,93,30.26,10.0,Calm,Calm,-,N/A,,Overcast,0,2012-11-16 11:20:00
6:23 AM,48.2,46.4,93,30.26,9.0,NNE,3.5,-,N/A,,Overcast,30,2012-11-16 11:23:00
6:43 AM,48.2,46.4,93,30.26,9.0,Calm,Calm,-,N/A,,Overcast,0,2012-11-16 11:43:00
6:53 AM,48.0,46.0,93,30.27,10.0,Calm,Calm,-,N/A,,Overcast,0,2012-11-16 11:53:00
7:16 AM,48.2,46.4,93,30.27,8.0,NNE,3.5,-,N/A,,Overcast,30,2012-11-16 12:16:00
7:53 AM,48.9,46.0,90,30.28,7.0,NNE,4.6,-,N/A,,Overcast,20,2012-11-16 12:53:00
8:02 AM,48.2,46.4,93,30.28,8.0,NNE,3.5,-,N/A,,Overcast,20,2012-11-16 13:02:00
8:31 AM,50.0,46.4,87,30.29,7.0,NE,4.6,-,N/A,,Overcast,40,2012-11-16 13:31:00
8:38 AM,50.0,46.4,87,30.29,7.0,NNE,5.8,-,N/A,,Overcast,30,2012-11-16 13:38:00
8:53 AM,51.1,46.0,83,30.30,7.0,NE,9.2,-,N/A,,Overcast,50,2012-11-16 13:53:00
9:19 AM,51.8,44.6,76,30.30,8.0,NE,5.8,-,N/A,,Mostly Cloudy,40,2012-11-16 14:19:00
9:53 AM,53.1,44.1,71,30.30,8.0,NE,9.2,-,N/A,,Mostly Cloudy,50,2012-11-16 14:53:00
10:53 AM,54.0,44.1,69,30.30,9.0,North,10.4,-,N/A,,Mostly Cloudy,10,2012-11-16 15:53:00
11:53 AM,52.0,43.0,71,30.31,7.0,NE,10.4,-,N/A,,Overcast,50,2012-11-16 16:53:00
12:53 PM,55.9,43.0,62,30.28,10.0,ENE,9.2,-,N/A,,Scattered Clouds,70,2012-11-16 17:53:00
1:53 PM,59.0,43.0,55,30.26,10.0,Variable,6.9,-,N/A,,Clear,0,2012-11-16 18:53:00
2:53 PM,62.1,43.0,50,30.24,10.0,North,5.8,-,N/A,,Clear,360,2012-11-16 19:53:00
3:53 PM,62.1,43.0,50,30.24,10.0,NNE,9.2,-,N/A,,Clear,30,2012-11-16 20:53:00
4:53 PM,57.9,39.9,51,30.25,10.0,ENE,12.7,-,N/A,,Clear,60,2012-11-16 21:53:00
5:53 PM,53.1,41.0,64,30.25,10.0,NE,5.8,-,N/A,,Clear,50,2012-11-16 22:53:00
6:53 PM,52.0,42.1,69,30.27,10.0,NE,3.5,-,N/A,,Clear,40,2012-11-16 23:53:00
7:53 PM,46.9,41.0,80,30.29,10.0,Calm,Calm,-,N/A,,Clear,0,2012-11-17 00:53:00
8:53 PM,45.0,39.9,82,30.30,10.0,Calm,Calm,-,N/A,,Clear,0,2012-11-17 01:53:00
9:53 PM,44.1,39.9,85,30.30,10.0,Calm,Calm,-,N/A,,Clear,0,2012-11-17 02:53:00
10:53 PM,43.0,39.0,86,30.32,9.0,Calm,Calm,-,N/A,,Clear,0,2012-11-17 03:53:00
11:53 PM,41.0,37.9,89,30.31,8.0,Calm,Calm,-,N/A,,Clear,0,2012-11-17 04:53:00